Weather in Nadym

Russia / Yamalo-Nenets Autonomous Okrug     65°32′09″N   72°31′52″E
temp.,
°C
wind,
m/s
gust,
m/s
humid.,
%
clouds,
%
prec.,
mm/h
press.,
hPa
HPBL,
m
27 february, sat
sat2723:00−26wnw229987 0.1 102319
02:00−27w2210083 0.0 102319
05:00−27wnw239982 0.1 102419
08:00−26nw119893 0.1 102319
11:00−24w129591 0.1 1024123
14:00−22wsw119394 0.0 1024185
17:00−26ssw1210090 0.0 102420
20:00−27s2210043 0.0 102419
28 february, sun
sun2823:00−27s3310030 0.0 102519
02:00−27ssw331000 0.0 102419
05:00−28s34983 0.0 102519
08:00−28s44972 0.0 102424
11:00−24s46931 0.0 1024202
14:00−22s56910 0.0 1024246
17:00−24s45940 0.0 102433
20:00−26s55940 0.0 102340
1 march, mon
mon123:00−27s56930 0.0 102458
02:00−28s569210 0.0 102353
05:00−28s559123 0.0 102243
08:00−28s579184 0.0 102278
11:00−24s699170 0.0 1021254
14:00−21ssw699083 0.0 1019316
17:00−23s699272 0.0 1018113
20:00−25s712905 0.0 1017144
2 march, tue
tue223:00−26s712872 0.0 1016172
02:00−26s712870 0.0 1015175
05:00−26s8148648 0.0 1014223
08:00−25s91484100 0.0 1012248
11:00−22s101685100 0.0 1012340
14:00−19s10158298 0.0 1012411
17:00−20s9158499 0.0 1011337
20:00−22s91687100 0.0 1011285
3 march, wed
wed323:00−23s91589100 0.0 1011280
02:00−23s81493100 0.0 1011257
05:00−23sse81394100 0.0 1010253
08:00−22sse91594100 0.0 1010263
11:00−20s101593100 0.0 1010383
14:00−17s101490100 0.0 1010461
17:00−18sse91591100 0.0 1009359
20:00−20sse91594100 0.0 1008324